Location: Lecco
(45.8566°N, 9.3977°E)
Time: 03:56:03
(UTC+02:00)

Transit 4A - Pass Details

Date: 20 August 2020
Orbit: 863 x 982 km, 66.8° (Epoch: 23 September)

Event Time Altitude Azimuth Distance (km) Brightness Sun altitude
Rises 14:25:04 0° 327° (NNW) 3,637 10.8 54.0°
Reaches altitude 10° 14:28:44 10° 348° (NNW) 2,709 10.2 53.8°
Maximum altitude 14:32:36 16° 26° (NNE) 2,288 9.8 53.5°
Drops below altitude 10° 14:36:29 10° 64° (ENE) 2,733 10.2 53.1°
Sets 14:40:12 0° 85° (E) 3,685 10.8 52.8°
